Northeast Philadelphia, PA

4:37 PM EDT on October 21, 2019 (GMT -0400)
Northeast Philadelphia

Weather History for KPNE - August, 2019

Change the Weather History Date:

Friday, August 16, 2019

  Actual Average Record
Temperature  
Mean Temperature 80 °F -  
Max Temperature 88 °F 83 °F 96 °F (1997)
Min Temperature 72 °F 65 °F 57 °F (2013)
Cooling Degree Days 14    
Growing Degree Days 30 (Base 50)    
Moisture  
Dew Point 69 °F    
Average Humidity 73    
Maximum Humidity 85    
Minimum Humidity 51    
Precipitation  
Precipitation 0.00 in - - ()
Sea Level Pressure  
Sea Level Pressure 30.02 in    
Wind  
Wind Speed 6 mph (East)    
Max Wind Speed 10 mph    
Max Gust Speed -    
Visibility 10 miles    
Events      
Averages and records for this station are not official NWS values.
T = Trace of Precipitation, MM = Missing Value Source: NWS Daily Summary

Daily Weather History Graph

Daily Weather History Graph

Search for Another Location

Airport or City:

Astronomy

Aug. 16, 2019 Rise Set
Actual Time 6:12 AM EDT 7:55 PM EDT
Civil Twilight 5:43 AM EDT 8:24 PM EDT
Nautical Twilight 5:08 AM EDT 8:59 PM EDT
Astronomical Twilight 4:30 AM EDT 9:37 PM EDT
Moon 8:54 PM EDT (8/16) 7:01 AM EDT (8/16)
Length of Visible Light 14h 41m
Length of Day
13h 43m
Full, 99% of the Moon is Illuminated
Aug 16
Full
Aug 23
Last Quarter
Aug 30
New
Sep 5
First Quarter
Sep 14
Full

Hourly Weather History & Observations

Time (EDT) Temp. Heat Index Dew Point Humidity Pressure Visibility Wind Dir Wind Speed Gust Speed Precip Events Conditions
12:33 AM 72.0 °F - 66.0 °F 81% 30.04 in 10.0 mi NE 4.6 mph - N/A   Mostly Cloudy
12:54 AM 73.0 °F - 66.9 °F 81% 30.01 in 10.0 mi East 5.8 mph - N/A   Scattered Clouds
1:54 AM 73.0 °F - 66.9 °F 81% 30.02 in 10.0 mi NNE 4.6 mph - N/A   Mostly Cloudy
2:54 AM 73.0 °F - 66.9 °F 81% 30.01 in 10.0 mi NE 4.6 mph - N/A   Overcast
3:54 AM 73.0 °F - 66.9 °F 81% 30.01 in 10.0 mi NE 4.6 mph - N/A   Overcast
4:54 AM 73.0 °F - 66.9 °F 81% 30.01 in 10.0 mi NNE 5.8 mph - N/A   Overcast
5:12 AM 73.0 °F - 66.9 °F 81% 30.02 in 10.0 mi NNE 5.8 mph - N/A   Overcast
5:54 AM 73.0 °F - 66.9 °F 81% 30.03 in 10.0 mi NE 5.8 mph - N/A   Overcast
6:54 AM 73.0 °F - 68.0 °F 84% 30.04 in 10.0 mi NE 4.6 mph - N/A   Overcast
7:54 AM 75.0 °F - 68.0 °F 79% 30.04 in 10.0 mi ENE 5.8 mph - N/A   Scattered Clouds
8:08 AM 75.9 °F - 68.0 °F 76% 30.04 in 10.0 mi ENE 4.6 mph - N/A   Mostly Cloudy
8:18 AM 75.9 °F - 68.0 °F 76% 30.03 in 10.0 mi East 6.9 mph - N/A   Mostly Cloudy
8:54 AM 75.9 °F - 68.0 °F 76% 30.03 in 10.0 mi East 6.9 mph - N/A   Mostly Cloudy
9:54 AM 78.1 °F - 68.0 °F 71% 30.03 in 10.0 mi East 6.9 mph - N/A   Scattered Clouds
10:11 AM 80.1 °F 82.9 °F 69.1 °F 69% 30.03 in 10.0 mi East 8.1 mph - N/A   Mostly Cloudy
10:23 AM 80.1 °F 82.9 °F 69.1 °F 69% 30.03 in 10.0 mi ENE 5.8 mph - N/A   Scattered Clouds
10:54 AM 81.0 °F 84.1 °F 69.1 °F 67% 30.04 in 10.0 mi Variable 4.6 mph - N/A   Scattered Clouds
11:09 AM 81.0 °F 83.8 °F 68.0 °F 65% 30.04 in 10.0 mi Variable 3.5 mph - N/A   Mostly Cloudy
11:54 AM 84.0 °F 87.0 °F 68.0 °F 58% 30.04 in 10.0 mi East 6.9 mph - N/A   Mostly Cloudy
12:26 PM 82.9 °F 85.4 °F 66.9 °F 58% 30.04 in 10.0 mi ESE 5.8 mph - N/A   Mostly Cloudy
12:54 PM 84.0 °F 87.0 °F 68.0 °F 58% 30.03 in 10.0 mi SSW 5.8 mph - N/A   Mostly Cloudy
1:54 PM 86.0 °F 89.4 °F 68.0 °F 55% 30.03 in 10.0 mi East 3.5 mph - N/A   Scattered Clouds
2:54 PM 87.1 °F 89.9 °F 66.9 °F 51% 30.02 in 10.0 mi Variable 4.6 mph - N/A   Scattered Clouds
3:54 PM 87.1 °F 90.6 °F 68.0 °F 53% 30.00 in 10.0 mi ESE 6.9 mph - N/A   Partly Cloudy
4:54 PM 87.1 °F 92.0 °F 70.0 °F 57% 29.99 in 10.0 mi ESE 10.4 mph - N/A   Partly Cloudy
5:54 PM 81.0 °F 84.9 °F 71.1 °F 72% 29.99 in 10.0 mi SE 9.2 mph - N/A   Scattered Clouds
6:54 PM 81.0 °F 85.2 °F 72.0 °F 74% 29.99 in 10.0 mi ESE 9.2 mph - N/A   Scattered Clouds
7:54 PM 81.0 °F 85.2 °F 72.0 °F 74% 29.99 in 10.0 mi ESE 8.1 mph - N/A   Mostly Cloudy
8:31 PM 80.1 °F 83.8 °F 72.0 °F 76% 29.99 in 10.0 mi SE 8.1 mph - N/A   Mostly Cloudy
8:54 PM 80.1 °F 83.8 °F 72.0 °F 76% 29.99 in 10.0 mi SE 6.9 mph - N/A   Mostly Cloudy
9:02 PM 79.0 °F - 72.0 °F 79% 30.00 in 10.0 mi SE 8.1 mph - N/A   Scattered Clouds
9:11 PM 80.1 °F 83.6 °F 71.1 °F 74% 30.01 in 10.0 mi SE 8.1 mph - N/A   Mostly Cloudy
9:49 PM 78.8 °F - 71.6 °F 78% 30.03 in 10.0 mi SSE 5.8 mph - N/A   Overcast
9:54 PM 78.1 °F - 71.1 °F 79% 30.03 in 10.0 mi SE 4.6 mph - N/A   Overcast
10:16 PM 78.1 °F - 71.1 °F 79% 30.03 in 10.0 mi SSE 4.6 mph - N/A   Mostly Cloudy
10:54 PM 77.0 °F - 72.0 °F 84% 30.03 in 10.0 mi SE 6.9 mph - N/A   Mostly Cloudy
11:13 PM 77.0 °F - 72.0 °F 84% 30.03 in 10.0 mi SE 5.8 mph - N/A   Scattered Clouds
11:54 PM 75.9 °F - 71.1 °F 85% 30.02 in 10.0 mi ESE 5.8 mph - N/A   Scattered Clouds